15min,AgWx,beryljct,423,26APR2019:00:00:00,50.9,12.89,50.3,50.4,50.1,50.5,49.7,91,92,89,1.110,47.5,47.6,47.3,6.642,8.3,286,11,11.5,0.00001,0.00002,55.8,55.5,10,0,0,50.0,13.71,0.00,0.00
15min,AgWx,beryljct,423,26APR2019:00:15:00,51.1,12.89,49.4,49.7,50.1,50.4,49.7,89,90,89,1.090,47.1,47.4,46.8,3.332,5.8,310,12,9.5,-0.00001,0.00000,55.7,55.4,10,0,0,49.5,13.71,0.00,0.00
15min,AgWx,beryljct,423,26APR2019:00:30:00,50.8,12.86,48.9,49.0,49.1,49.7,48.7,91,92,90,1.067,46.5,46.8,46.3,1.25,3.4,298,13,4.3,-0.00006,-0.00007,55.6,55.4,10,0,0,48.3,13.72,0.00,0.00
15min,AgWx,beryljct,423,26APR2019:00:45:00,50.5,12.87,49.5,49.4,49.4,49.8,48.9,89,91,88,1.077,46.4,46.6,46.2,2.105,1.4,262,48,2.9,-0.00011,-0.00015,55.5,55.3,10,0,0,47.8,13.71,0.00,0.00
15min,AgWx,beryljct,423,26APR2019:01:00:00,49.9,12.86,46.9,46.8,47.4,49.4,46.5,92,95,89,1.028,45.3,46.5,44.5,5.524,4.2,162,11,5.6,-0.00005,-0.00006,55.3,55.3,10,0,0,46.5,13.71,0.00,0.00
15min,AgWx,beryljct,423,26APR2019:01:15:00,49.1,12.85,46.3,46.2,46.6,46.9,46.2,95,96,94,1.021,45.4,45.6,45.1,5.327,5.5,168,6.9,7.6,-0.00005,-0.00006,55.2,55.3,10,0,0,46.1,13.72,0.00,0.00
15min,AgWx,beryljct,423,26APR2019:01:30:00,48.5,12.87,46.3,46.2,46.1,46.3,45.9,96,97,96,1.021,45.1,45.3,44.9,6.204,6.1,173,7.0,8.8,-0.00005,-0.00006,55.1,55.2,10,0,0,45.7,13.71,0.00,0.00
15min,AgWx,beryljct,423,26APR2019:01:45:00,48.1,12.85,46.4,46.3,46.3,46.6,46.1,96,96,95,1.023,45.1,45.4,44.9,6.511,6.4,180,6.3,8.4,-0.00005,-0.00005,55.0,55.2,10,0,0,45.7,13.72,0.00,0.00
15min,AgWx,beryljct,423,26APR2019:02:00:00,47.8,12.86,46.6,46.3,46.3,46.4,46.2,96,96,95,1.018,45.1,45.3,45.0,5.853,6.3,187,6.1,8.4,-0.00005,-0.00005,54.9,55.1,10,0,0,45.6,13.72,0.00,0.00
15min,AgWx,beryljct,423,26APR2019:02:15:00,47.6,12.85,46.4,46.1,46.4,46.7,46.1,95,96,95,1.009,45.1,45.4,44.7,3.924,5.2,182,6.1,7.4,-0.00005,-0.00006,54.7,55.1,10,0,0,45.6,13.71,0.00,0.00
15min,AgWx,beryljct,423,26APR2019:02:30:00,47.4,12.85,46.8,46.5,46.3,46.7,45.9,95,95,94,1.013,44.9,45.3,44.5,4.056,3.9,196,11,5.6,-0.00007,-0.00008,54.6,55.1,10,0,92,45.1,13.71,0.00,0.00
15min,AgWx,beryljct,423,26APR2019:02:45:00,47.3,12.85,47.7,47.3,47.1,47.4,46.5,93,95,91,1.018,45.0,45.5,44.6,4.998,4.4,174,15,5.7,-0.00005,-0.00005,54.5,55.0,10,0,100,45.7,13.71,0.00,0.00
15min,AgWx,beryljct,423,26APR2019:03:00:00,47.2,12.84,46.0,46.1,47.0,47.5,46.0,91,93,90,0.969,44.6,45.1,43.4,3.705,3.9,171,6.7,5.2,-0.00005,-0.00006,54.4,55.0,10,0,100,45.5,13.71,0.00,0.00
15min,AgWx,beryljct,423,26APR2019:03:15:00,46.8,12.83,44.7,45.2,45.2,46.0,44.0,93,96,91,0.945,43.4,44.1,41.8,2.674,3.3,176,11,4.1,-0.00007,-0.00009,54.3,54.9,10,0,100,44.1,13.71,0.00,0.00
15min,AgWx,beryljct,423,26APR2019:03:30:00,46.1,12.84,43.3,43.3,43.4,45.0,42.7,95,97,92,0.920,42.0,43.0,41.0,0,0.4,176,6.6,2.7,-0.00015,-0.00022,54.2,54.9,10,0,100,42.4,13.72,0.00,0.00
15min,AgWx,beryljct,423,26APR2019:03:45:00,45.3,12.83,41.6,41.2,42.0,43.6,40.6,96,98,94,0.860,40.9,42.7,39.5,5.02,2.9,293,61,5.0,-0.00009,-0.00011,54.1,54.8,10,0,100,41.4,13.72,0.00,0.00
15min,AgWx,beryljct,423,26APR2019:04:00:00,44.6,12.84,43.3,41.7,41.7,42.4,41.2,97,98,96,0.864,40.9,41.9,40.1,3.091,4.3,304,3.3,5.6,-0.00007,-0.00008,53.9,54.7,10,0,100,41.5,13.72,0.00,0.00
15min,AgWx,beryljct,423,26APR2019:04:15:00,43.9,12.82,40.4,40.6,41.4,42.2,40.6,96,98,95,0.830,40.5,41.4,39.7,3.288,2.6,75,76,4.7,-0.00009,-0.00011,53.8,54.7,10,0,100,40.8,13.71,0.00,0.00
15min,AgWx,beryljct,423,26APR2019:04:30:00,43.4,12.83,39.9,39.8,40.2,40.7,39.7,98,98,97,0.816,39.6,40.0,39.1,0,1.5,89,3.2,3.7,-0.00011,-0.00015,53.7,54.7,10,0,100,39.8,13.72,0.00,0.00
15min,AgWx,beryljct,423,26APR2019:04:45:00,42.6,12.82,40.4,40.0,39.8,40.1,39.4,99,99,98,0.831,39.5,39.8,39.0,0,0.3,98,6.6,1.3,-0.00015,-0.00023,53.6,54.6,10,0,100,38.8,13.72,0.00,0.00
15min,AgWx,beryljct,423,26APR2019:05:00:00,42.0,12.82,40.4,40.0,39.8,40.0,39.6,99,99,99,0.831,39.5,39.8,39.3,1.6,0.3,160,26,2.7,0.00001,0.00001,53.4,54.6,10,0,100,38.5,13.72,0.00,0.00
15min,AgWx,beryljct,423,26APR2019:05:15:00,41.5,12.81,39.4,39.7,39.3,40.3,37.6,99,100,97,0.829,39.1,40.3,36.8,2.521,0.9,211,5.5,2.5,0.00001,0.00001,53.3,54.5,10,0,100,38.3,13.71,0.00,0.00
15min,AgWx,beryljct,423,26APR2019:05:30:00,41.0,12.8,40.4,39.9,39.4,40.3,38.3,100,100,99,0.832,39.3,40.3,38.1,1.184,0.9,185,25,2.8,0.00001,0.00001,53.2,54.5,10,0,100,38.4,13.71,0.00,0.00
15min,AgWx,beryljct,423,26APR2019:05:45:00,40.5,12.81,39.9,38.8,37.7,40.0,36.2,99,100,97,0.799,37.5,40.0,35.9,1.907,0.8,142,1.6,2.3,0.00002,0.00002,53.0,54.4,10,2,100,37.2,13.72,0.00,0.00
15min,AgWx,beryljct,423,26APR2019:06:00:00,40.1,12.82,37.9,38.0,38.7,40.0,37.5,100,100,100,0.772,38.7,40.0,37.4,2.28,2.2,155,6.8,3.1,0.00006,0.00006,52.9,54.3,10,11,100,38.6,13.71,0.00,0.00
15min,AgWx,beryljct,423,26APR2019:06:15:00,39.9,12.84,37.0,37.2,38.4,39.2,37.2,100,100,99,0.746,38.4,39.2,37.0,3.157,3.0,173,6.5,5.0,0.00011,0.00011,52.7,54.3,10,23,100,39.4,13.71,0.00,0.00
15min,AgWx,beryljct,423,26APR2019:06:30:00,40.0,12.85,41.6,40.7,38.9,40.7,37.1,100,100,99,0.863,38.9,40.8,36.9,3.924,3.0,193,4.5,4.1,0.00033,0.00035,52.6,54.2,10,81,100,44.6,13.72,0.00,0.00
15min,AgWx,beryljct,423,26APR2019:06:45:00,41.5,12.77,43.5,43.2,42.6,43.2,41.0,100,100,100,0.947,42.6,43.2,41.0,1.425,2.7,167,13,4.1,0.00055,0.00058,52.5,54.1,10,134,100,54.7,13.71,0.00,0.00
15min,AgWx,beryljct,423,26APR2019:07:00:00,43.7,12.83,44.4,44.3,43.4,44.3,43.1,100,100,100,0.988,43.4,44.3,43.1,1.556,2.2,140,4.2,3.8,0.00076,0.00081,52.3,54.1,10,183,27,65.8,13.71,0.00,0.00
15min,AgWx,beryljct,423,26APR2019:07:15:00,46.0,12.89,46.2,46.1,45.2,46.3,44.2,100,100,100,1.058,45.2,46.3,44.2,0,0.2,135,1.1,1.4,0.00109,0.00117,52.2,54.0,10,233,0,68.8,13.71,0.00,0.00
15min,AgWx,beryljct,423,26APR2019:07:30:00,48.5,12.98,49.1,48.6,47.4,48.7,46.2,99,100,98,1.138,47.2,48.3,46.2,1.469,0.8,40,20,2.4,0.00137,0.00146,52.0,54.0,10,287,18,74.4,13.71,0.00,0.00
15min,AgWx,beryljct,423,26APR2019:07:45:00,50.6,13.09,50.9,50.7,49.6,50.7,48.7,89,98,82,1.058,46.3,48.1,44.8,2.981,2.8,348,9.9,3.8,0.00165,0.00181,51.9,53.9,10,346,24,74.1,13.71,0.00,0.00
15min,AgWx,beryljct,423,26APR2019:08:00:00,52.5,13.29,52.0,51.8,51.1,51.8,50.4,82,84,80,1.054,45.7,46.2,44.8,1.907,1.5,4.8,11,4.0,0.00213,0.00232,51.8,53.9,10,420,10,78.1,13.70,0.00,0.00
15min,AgWx,beryljct,423,26APR2019:08:15:00,54.6,13.42,53.5,53.0,52.4,53.0,51.7,79,81,77,1.068,46.0,46.6,45.3,1.776,1.3,338,9.3,3.3,0.00209,0.00227,51.7,53.8,10,389,0,78.2,13.70,0.00,0.00
15min,AgWx,beryljct,423,26APR2019:08:30:00,56.3,13.77,53.7,54.2,53.5,54.3,52.8,76,79,74,1.089,46.2,47.5,45.3,1.885,1.5,347,16,2.8,0.00256,0.00279,51.6,53.7,10,477,0,80.7,13.70,0.00,0.00
15min,AgWx,beryljct,423,26APR2019:08:45:00,58.2,14.36,55.9,55.2,54.7,55.5,53.8,74,77,71,1.068,46.7,47.7,45.7,2.543,2.4,345,19,4.7,0.00293,0.00323,51.6,53.6,10,541,0,82.8,13.70,0.00,0.00
15min,AgWx,beryljct,423,26APR2019:09:00:00,60.1,14.35,56.1,56.6,56.0,56.6,55.3,72,75,69,1.144,47.1,48.2,45.9,3.354,3.1,332,17,5.4,0.00325,0.00361,51.5,53.6,10,591,0,82.2,13.70,0.00,0.00
15min,AgWx,beryljct,423,26APR2019:09:15:00,62.0,14.25,57.6,57.6,57.2,58.1,56.3,70,73,67,1.096,47.6,49.0,46.7,3.332,2.8,353,16,4.2,0.00360,0.00399,51.5,53.5,10,641,0,85.0,13.70,0.00,0.00
15min,AgWx,beryljct,423,26APR2019:09:30:00,63.9,14.2,60.1,59.2,58.6,59.2,57.5,69,72,66,1.168,48.3,50.1,46.6,1.293,2.1,24,15,4.4,0.00389,0.00428,51.5,53.4,10,675,0,88.8,13.70,0.00,0.00
15min,AgWx,beryljct,423,26APR2019:09:45:00,65.7,14.19,59.9,60.8,59.9,61.0,59.3,68,72,64,1.202,49.4,51.1,47.3,1.798,2.1,27,37,4.7,0.00421,0.00461,51.6,53.4,10,716,0,91.6,13.70,0.00,0.00
15min,AgWx,beryljct,423,26APR2019:10:00:00,67.5,14.2,60.7,61.3,60.9,61.9,60.3,66,70,64,1.223,49.5,52.1,48.1,1.447,1.5,35,38,3.4,0.00453,0.00493,51.6,53.3,10,756,0,96.6,13.70,0.00,0.00
15min,AgWx,beryljct,423,26APR2019:10:15:00,69.2,14.13,63.1,62.9,62.2,63.7,61.2,65,69,62,1.217,50.1,51.8,49.0,0.614,1.1,9.7,37,2.5,0.00484,0.00524,51.7,53.3,10,793,0,99.5,13.69,0.00,0.00
15min,AgWx,beryljct,423,26APR2019:10:30:00,70.7,14.13,64.1,64.9,63.8,65.2,63.0,64,67,62,1.318,51.2,53.3,50.1,2.543,1.7,16,68,3.8,0.00465,0.00508,51.8,53.2,10,745,0,100.4,13.69,0.00,0.00
15min,AgWx,beryljct,423,26APR2019:10:45:00,72.0,14.06,68.0,67.7,66.0,67.7,64.6,62,66,58,1.520,52.5,55.8,50.6,2.17,2.7,120,19,5.2,0.00538,0.00594,52.0,53.2,10,853,0,101.1,13.69,0.00,0.00
15min,AgWx,beryljct,423,26APR2019:11:00:00,73.1,13.65,72.3,71.1,69.0,71.1,67.6,56,67,47,1.355,52.5,57.0,48.2,9.51,3.3,120,27,9.5,0.00575,0.00643,52.2,53.2,10,880,0,100.3,13.69,0.00,0.00
15min,AgWx,beryljct,423,26APR2019:11:15:00,74.3,13.64,73.6,73.2,73.0,73.8,71.3,34,51,30,0.958,42.7,52.0,39.8,8.02,10.5,204,15,15.4,0.00672,0.00846,52.4,53.2,10,908,0,93.2,13.68,0.00,0.00
15min,AgWx,beryljct,423,26APR2019:11:30:00,75.1,13.61,74.0,73.7,73.6,74.0,73.3,31,36,28,0.880,41.1,44.5,38.2,8.51,12.4,205,13,18.0,0.00705,0.00908,52.6,53.1,10,926,0,91.2,13.68,0.00,0.00
15min,AgWx,beryljct,423,26APR2019:11:45:00,75.8,13.61,74.2,74.2,74.2,74.8,73.6,30,35,27,0.845,40.8,45.5,37.8,11,12.2,210,15,17.8,0.00647,0.00848,52.9,53.1,10,794,0,91.2,13.68,0.00,0.00
15min,AgWx,beryljct,423,26APR2019:12:00:00,76.3,13.59,75.7,75.4,74.7,75.5,74.1,29,32,26,0.883,40.2,43.1,37.1,10.57,12.4,206,12,17.1,0.00736,0.00948,53.3,53.1,10,957,0,92.0,13.67,0.00,0.00
15min,AgWx,beryljct,423,26APR2019:12:15:00,77.0,13.55,75.0,75.4,75.4,76.3,74.5,28,31,26,0.808,40.1,42.9,37.5,17.06,13.5,201,13,20.3,0.00760,0.00987,53.5,53.1,10,974,0,91.8,13.66,0.00,0.00
15min,AgWx,beryljct,423,26APR2019:12:30:00,77.4,13.6,76.0,76.4,75.5,76.4,74.8,28,31,25,0.902,39.9,43.0,37.3,12.63,14.4,202,11,20.5,0.00763,0.01002,53.9,53.2,10,956,0,91.2,13.67,0.00,0.00
15min,AgWx,beryljct,423,26APR2019:12:45:00,77.7,13.59,76.1,75.9,75.7,76.4,75.1,28,30,25,0.861,39.9,42.5,37.2,10.17,14.4,206,14,24.6,0.00767,0.01008,54.2,53.2,10,977,0,90.6,13.66,0.00,0.00
15min,AgWx,beryljct,423,26APR2019:13:00:00,78.2,13.58,76.1,76.1,75.9,76.4,75.4,26,29,24,0.775,39.0,42.0,36.2,16.24,15.3,211,18,24.3,0.00797,0.01051,54.5,53.3,10,1000,0,90.6,13.66,0.00,0.00
15min,AgWx,beryljct,423,26APR2019:13:15:00,78.4,13.55,75.0,75.2,75.9,76.8,75.2,25,30,22,0.687,37.7,43.0,34.7,15.54,15.7,218,14,21.5,0.00795,0.01057,54.8,53.4,10,986,0,89.3,13.66,0.00,0.00
15min,AgWx,beryljct,423,26APR2019:13:30:00,78.6,13.52,75.8,76.2,76.3,77.3,75.2,25,28,24,0.786,38.3,41.8,35.9,12.28,14.6,207,12,22.8,0.00777,0.01027,55.2,53.4,10,960,0,89.7,13.66,0.00,0.00
15min,AgWx,beryljct,423,26APR2019:13:45:00,79.0,13.58,76.4,76.7,76.5,77.1,75.7,25,28,23,0.786,38.2,40.8,35.7,13.99,13.1,198,14,21.0,0.00754,0.00989,55.5,53.5,10,934,0,90.1,13.66,0.00,0.00
15min,AgWx,beryljct,423,26APR2019:14:00:00,79.3,13.57,75.2,76.1,76.4,77.1,75.9,24,28,22,0.755,37.5,40.6,35.0,16.38,15.8,209,13,21.1,0.00767,0.01031,55.8,53.6,10,919,0,87.9,13.67,0.01,0.00
15min,AgWx,beryljct,423,26APR2019:14:15:00,79.3,13.5,77.6,76.6,76.3,76.9,75.8,24,27,22,0.754,37.1,39.4,34.4,11.75,15.2,206,13,22.3,0.00750,0.01009,56.1,53.7,10,898,0,87.6,13.66,0.00,0.00
15min,AgWx,beryljct,423,26APR2019:14:30:00,79.5,13.51,77.2,76.6,76.5,77.2,76.0,24,27,23,0.717,37.4,40.6,35.6,11.73,14.6,201,12,24.4,0.00729,0.00981,56.5,53.8,10,867,0,87.3,13.66,0.00,0.00
15min,AgWx,beryljct,423,26APR2019:14:45:00,79.7,13.48,76.2,76.6,76.8,77.8,76.2,24,26,22,0.734,37.2,39.5,35.2,18.96,15.5,197,10,23.5,0.00721,0.00982,56.8,53.9,10,836,0,86.4,13.67,0.00,0.00
15min,AgWx,beryljct,423,26APR2019:15:00:00,79.8,13.49,76.7,76.2,76.3,76.9,75.6,25,27,23,0.790,37.5,40.1,35.8,10.02,13.4,214,17,19.9,0.00660,0.00893,57.1,54.0,10,768,0,85.3,13.67,0.00,0.00
15min,AgWx,beryljct,423,26APR2019:15:15:00,79.8,13.56,75.5,76.3,76.4,77.0,76.0,24,27,22,0.722,37.1,39.9,34.7,19.73,15.2,208,11,23.1,0.00655,0.00908,57.4,54.1,10,734,0,84.4,13.67,0.00,0.00
15min,AgWx,beryljct,423,26APR2019:15:30:00,79.9,13.48,76.0,76.6,76.4,77.0,75.7,24,27,23,0.717,36.8,39.9,35.2,15.19,14.6,200,12,22.8,0.00652,0.00901,57.8,54.2,10,733,0,83.6,13.67,0.00,0.00
15min,AgWx,beryljct,423,26APR2019:15:45:00,80.0,13.49,76.9,77.0,76.6,77.3,76.0,24,27,22,0.779,37.2,39.6,35.0,15.65,12.6,204,15,20.8,0.00607,0.00831,58.0,54.4,10,689,0,83.7,13.67,0.00,0.00
15min,AgWx,beryljct,423,26APR2019:16:00:00,80.3,13.46,76.3,76.1,76.7,77.1,75.9,24,26,22,0.743,36.9,39.3,35.0,10.59,14.9,203,17,22.8,0.00616,0.00867,58.3,54.5,10,658,0,82.7,13.67,0.00,0.00
15min,AgWx,beryljct,423,26APR2019:16:15:00,80.1,13.48,75.9,76.2,76.3,76.8,75.3,24,27,21,0.684,36.9,39.9,34.0,12.91,13.5,209,13,19.1,0.00550,0.00778,58.6,54.6,10,582,0,82.0,13.67,0.00,0.00
15min,AgWx,beryljct,423,26APR2019:16:30:00,80.0,13.48,76.5,76.4,76.4,77.4,75.8,23,25,21,0.688,35.9,38.5,33.9,16.81,13.7,204,12,22.7,0.00547,0.00780,58.8,54.7,10,565,0,81.1,13.67,0.01,0.00
15min,AgWx,beryljct,423,26APR2019:16:45:00,79.6,13.48,76.2,76.1,76.0,76.4,75.7,22,24,21,0.703,34.6,36.6,33.0,12.91,14.2,209,11,22.3,0.00514,0.00753,59.0,54.9,10,498,0,79.3,13.67,0.00,0.00
15min,AgWx,beryljct,423,26APR2019:17:00:00,79.1,13.51,75.6,75.6,75.7,76.2,75.2,23,26,20,0.642,34.8,38.1,32.0,13.81,11.3,228,15,16.5,0.00441,0.00641,59.2,55.0,10,443,0,78.5,13.67,0.00,0.00
15min,AgWx,beryljct,423,26APR2019:17:15:00,78.2,13.55,74.3,74.4,74.3,75.6,73.3,22,24,21,0.698,33.5,35.3,32.3,10.06,11.8,230,14,16.0,0.00313,0.00507,59.4,55.1,10,229,0,75.5,13.67,0.00,0.00
15min,AgWx,beryljct,423,26APR2019:17:30:00,77.6,13.33,72.4,73.1,74.8,75.3,73.1,24,28,21,0.741,35.9,39.3,33.2,8.92,11.2,223,15,16.4,0.00362,0.00551,59.5,55.2,10,329,0,77.0,13.67,0.00,0.00
15min,AgWx,beryljct,423,26APR2019:17:45:00,76.7,13.55,74.7,74.4,73.5,74.5,72.3,26,29,24,0.796,37.0,38.7,35.1,11.95,10.5,221,11,16.7,0.00303,0.00471,59.6,55.3,10,270,0,74.2,13.67,0.00,0.00
15min,AgWx,beryljct,423,26APR2019:18:00:00,76.3,13.34,73.9,73.9,74.0,74.5,73.4,27,29,25,0.770,37.5,39.3,36.1,11.71,11.3,217,10,15.5,0.00293,0.00471,59.7,55.4,10,228,0,74.6,13.68,0.00,0.00
15min,AgWx,beryljct,423,26APR2019:18:15:00,76.0,13.18,72.9,73.3,73.8,74.3,73.3,27,29,24,0.765,37.6,39.2,35.6,10.33,11.1,225,14,18.0,0.00284,0.00458,59.8,55.5,10,220,0,74.3,13.68,0.00,0.00
15min,AgWx,beryljct,423,26APR2019:18:30:00,75.3,13.17,72.3,72.5,72.8,73.5,71.7,27,29,25,0.716,36.4,37.9,35.4,9.97,11.8,227,8.8,16.6,0.00140,0.00176,59.8,55.6,10,125,0,72.4,13.68,0.00,0.00
15min,AgWx,beryljct,423,26APR2019:18:45:00,74.2,13.14,71.7,71.3,71.9,73.2,71.2,27,28,24,0.699,35.7,37.1,34.1,10.87,10.3,225,10,15.7,0.00115,0.00149,59.8,55.7,10,60,0,70.8,13.68,0.00,0.00
15min,AgWx,beryljct,423,26APR2019:19:00:00,72.8,13.13,70.8,69.9,70.7,71.5,69.9,28,30,27,0.730,35.9,36.7,35.3,8.83,9.1,210,6.8,13.8,0.00094,0.00124,59.8,55.8,10,17,0,69.2,13.68,0.00,0.00
15min,AgWx,beryljct,423,26APR2019:19:15:00,71.4,13.11,68.5,68.2,69.0,70.2,68.0,31,32,29,0.736,36.8,37.4,35.9,5.327,6.9,217,7.4,9.7,0.00066,0.00092,59.8,55.9,10,7,0,67.4,13.68,0.00,0.00
15min,AgWx,beryljct,423,26APR2019:19:30:00,70.0,13.09,64.0,64.2,67.0,68.7,64.2,34,40,30,0.807,37.8,41.1,36.4,9.93,5.7,14,87,11.2,0.00048,0.00069,59.7,56.0,10,2,0,65.9,13.68,0.00,0.00
15min,AgWx,beryljct,423,26APR2019:19:45:00,68.4,13.08,64.6,63.8,63.7,64.4,63.4,41,42,39,0.822,39.6,40.3,38.7,6.971,8.4,37,13,11.7,0.00057,0.00075,59.7,56.0,10,0,0,63.3,13.69,0.00,0.00
15min,AgWx,beryljct,423,26APR2019:20:00:00,67.0,13.07,62.4,61.7,63.1,64.4,61.5,44,48,39,0.891,40.6,42.0,38.9,5.744,6.1,58,21,12.0,0.00038,0.00054,59.6,56.1,10,0,0,62.6,13.69,0.00,0.00
15min,AgWx,beryljct,423,26APR2019:20:15:00,65.8,13.06,61.4,62.0,62.7,63.6,61.5,44,48,41,0.875,40.3,41.8,39.2,3.771,3.1,92,53,5.9,0.00010,0.00018,59.5,56.1,10,0,0,61.7,13.69,0.00,0.00
15min,AgWx,beryljct,423,26APR2019:20:30:00,64.8,13.05,60.5,60.5,61.0,62.0,60.3,49,51,46,0.908,41.6,42.1,40.9,5.963,4.4,106,18,6.2,0.00018,0.00028,59.4,56.1,10,0,0,60.5,13.69,0.00,0.00
15min,AgWx,beryljct,423,26APR2019:20:45:00,63.9,13.04,60.0,60.1,60.7,61.6,60.1,50,54,47,0.948,42.0,43.2,40.9,3.924,3.6,269,94,6.4,0.00011,0.00019,59.2,56.2,10,0,0,60.0,13.69,0.00,0.00
15min,AgWx,beryljct,423,26APR2019:21:00:00,63.0,13.04,60.0,59.0,59.1,60.5,58.3,55,58,49,0.909,43.0,43.9,41.1,3.113,3.4,177,70,5.9,0.00005,0.00011,59.1,56.2,10,0,0,58.4,13.69,0.00,0.00
15min,AgWx,beryljct,423,26APR2019:21:15:00,62.2,13.03,59.3,60.3,59.2,60.6,57.7,53,60,48,0.904,42.3,44.1,40.7,4.779,3.8,182,21,6.2,0.00010,0.00017,59.0,56.2,10,0,0,58.7,13.69,0.00,0.00
15min,AgWx,beryljct,423,26APR2019:21:30:00,61.6,13.01,61.0,60.2,59.0,60.2,57.7,54,61,48,0.860,42.4,44.2,40.6,3.31,4.9,69,26,7.7,0.00017,0.00026,58.9,56.3,10,0,0,58.7,13.70,0.00,0.00
15min,AgWx,beryljct,423,26APR2019:21:45:00,61.3,13.02,57.9,58.9,60.5,61.2,58.9,49,55,46,0.940,41.1,43.0,40.0,5.831,4.5,123,24,9.6,0.00019,0.00030,58.8,56.3,10,0,0,58.9,13.70,0.00,0.00
15min,AgWx,beryljct,423,26APR2019:22:00:00,60.7,13.01,58.4,58.0,58.1,58.7,57.4,55,59,53,0.891,42.2,43.3,41.5,5.787,5.2,145,18,7.3,0.00018,0.00027,58.6,56.3,10,0,0,57.1,13.70,0.00,0.00
15min,AgWx,beryljct,423,26APR2019:22:15:00,60.0,13,59.8,59.9,59.0,60.2,57.9,50,54,47,0.835,40.5,41.6,39.7,6.029,6.5,174,13,9.5,0.00031,0.00043,58.5,56.3,10,0,0,57.2,13.70,0.00,0.00
15min,AgWx,beryljct,423,26APR2019:22:30:00,59.6,12.99,58.1,59.0,59.2,60.0,58.3,48,50,47,0.815,39.7,40.2,39.1,4.911,6.5,175,9.5,10.1,0.00033,0.00045,58.4,56.3,10,0,0,57.2,13.70,0.00,0.00
15min,AgWx,beryljct,423,26APR2019:22:45:00,58.8,12.99,56.0,55.7,57.2,58.9,55.6,52,55,48,0.829,39.6,39.8,39.3,4.494,5.2,188,7.8,7.7,0.00021,0.00031,58.2,56.3,10,0,0,55.0,13.70,0.00,0.00
15min,AgWx,beryljct,423,26APR2019:23:00:00,57.7,12.96,57.7,55.3,55.1,56.5,53.9,56,59,53,0.824,39.6,39.9,39.4,4.231,4.5,189,4.3,5.5,0.00012,0.00019,58.1,56.3,10,0,0,52.8,13.70,0.00,0.00
15min,AgWx,beryljct,423,26APR2019:23:15:00,56.6,12.97,54.5,57.6,56.9,58.4,55.5,50,54,46,0.787,38.4,39.4,37.6,7.388,2.8,182,36,7.4,0.00001,0.00005,58.0,56.3,10,0,0,53.2,13.70,0.00,0.00
15min,AgWx,beryljct,423,26APR2019:23:30:00,55.9,12.97,53.0,53.5,54.3,57.2,51.3,56,65,49,0.809,39.0,39.9,38.2,4.275,5.9,332,31,11.6,0.00020,0.00028,57.8,56.3,10,0,0,52.5,13.70,0.00,0.00
15min,AgWx,bigpiney,439,26APR2019:00:00:00,40.0,12.69,34.4,33.5,33.4,33.7,33.1,77,78,75,0.487,26.9,27.4,26.3,4.647,2.6,198,15,4.9,-0.00010,-0.00012,42.1,34.8,52,0,0,0.0,1.20,0.00,0.00
15min,AgWx,bigpiney,439,26APR2019:00:15:00,39.3,12.69,35.9,35.2,33.9,35.2,33.1,73,75,68,0.473,26.0,26.7,25.5,1.425,2.9,164,30,5.8,-0.00007,-0.00008,41.9,34.7,52,0,0,0.0,1.20,0.00,0.00
15min,AgWx,bigpiney,439,26APR2019:00:30:00,38.7,12.67,37.2,37.8,35.7,38.7,34.1,67,71,59,0.466,25.8,26.4,25.3,4.253,2.7,157,17,5.5,-0.00007,-0.00007,41.7,34.7,52,0,0,0.0,1.20,0.00,0.00
15min,AgWx,bigpiney,439,26APR2019:00:45:00,38.4,12.67,38.7,36.2,37.2,38.3,35.8,63,66,60,0.473,25.7,26.5,25.1,5.283,4.7,161,12,5.9,0.00003,0.00006,41.5,34.7,52,0,0,0.0,1.20,0.00,0.00
15min,AgWx,bigpiney,439,26APR2019:01:00:00,38.3,12.67,34.8,35.5,36.5,38.0,34.9,64,69,61,0.461,25.6,26.4,25.0,4.056,4.3,173,14,6.4,0.00001,0.00003,41.3,34.7,52,0,0,0.0,1.20,0.00,0.00
15min,AgWx,bigpiney,439,26APR2019:01:15:00,38.1,12.65,38.4,38.4,36.0,38.5,34.2,65,69,60,0.474,25.2,26.2,24.3,3.639,3.7,180,16,7.2,-0.00002,0.00000,41.1,34.7,52,0,0,0.0,1.20,0.00,0.00
15min,AgWx,bigpiney,439,26APR2019:01:30:00,38.3,12.65,44.1,43.5,41.3,43.5,36.8,58,67,54,0.520,27.7,29.3,25.6,7.673,6.3,245,24,8.2,0.00012,0.00017,40.9,34.7,52,0,0,0.0,1.20,0.00,0.00
15min,AgWx,bigpiney,439,26APR2019:01:45:00,39.4,12.64,44.4,43.7,43.3,43.7,42.8,56,58,54,0.536,28.7,29.1,28.0,9.14,7.7,249,6.2,10.3,0.00018,0.00024,40.7,34.7,52,0,0,0.0,1.20,0.00,0.00
15min,AgWx,bigpiney,439,26APR2019:02:00:00,40.7,12.63,43.8,43.3,43.5,44.0,42.9,56,58,54,0.533,28.7,29.3,28.4,8.59,8.2,252,5.8,10.4,0.00020,0.00026,40.5,34.6,52,0,0,0.0,1.20,0.00,0.00
15min,AgWx,bigpiney,439,26APR2019:02:15:00,41.6,12.62,43.7,43.7,43.6,44.2,43.2,55,57,53,0.542,28.6,29.3,28.0,7.717,8.1,252,5.6,9.2,0.00020,0.00027,40.3,34.6,52,0,0,0.0,1.20,0.00,0.00
15min,AgWx,bigpiney,439,26APR2019:02:30:00,42.3,12.61,43.1,42.7,43.2,43.7,42.7,56,57,55,0.527,28.5,29.2,28.0,5.941,7.3,258,9.2,8.7,0.00018,0.00023,40.2,34.6,52,0,0,0.0,1.20,0.00,0.00
15min,AgWx,bigpiney,439,26APR2019:02:45:00,42.7,12.61,41.5,41.7,42.4,42.7,41.7,57,58,56,0.521,28.2,28.6,28.0,4.669,5.6,270,4.7,6.8,0.00011,0.00016,40.0,34.6,52,0,0,0.0,1.20,0.00,0.00
15min,AgWx,bigpiney,439,26APR2019:03:00:00,42.7,12.6,40.7,40.9,41.1,41.6,40.8,61,62,58,0.530,28.6,29.0,28.0,5.064,5.4,255,6.5,6.6,0.00007,0.00011,39.8,34.7,52,0,0,0.0,1.20,0.00,0.00
15min,AgWx,bigpiney,439,26APR2019:03:15:00,42.3,12.57,36.4,36.8,38.9,40.9,35.8,65,71,61,0.514,27.9,28.6,26.8,0.351,3.5,290,68,5.4,-0.00002,-0.00001,39.6,34.6,52,0,0,0.0,1.20,0.00,0.00
15min,AgWx,bigpiney,439,26APR2019:03:30:00,41.6,12.57,34.5,34.2,35.2,37.2,34.2,70,74,68,0.490,26.4,28.1,25.4,2.565,4.4,160,42,7.0,-0.00001,0.00000,39.4,34.5,52,0,0,0.0,1.20,0.00,0.00
15min,AgWx,bigpiney,439,26APR2019:03:45:00,40.5,12.55,36.7,35.7,33.9,35.7,32.9,74,79,73,0.531,26.6,28.7,25.2,5.919,3.2,175,35,6.8,-0.00007,-0.00007,39.3,34.5,52,0,0,0.0,1.20,0.00,0.00
15min,AgWx,bigpiney,439,26APR2019:04:00:00,39.6,12.55,33.0,33.2,35.3,36.0,33.2,72,74,71,0.470,27.3,28.4,25.5,1.754,4.6,208,39,6.4,-0.00001,0.00000,39.1,34.5,52,0,0,0.0,1.20,0.00,0.00
15min,AgWx,bigpiney,439,26APR2019:04:15:00,38.9,12.54,32.5,32.4,33.6,35.3,32.4,76,82,71,0.507,26.9,28.0,25.7,3.288,3.3,75,13,5.0,-0.00007,-0.00007,39.0,34.5,52,0,0,0.0,1.20,0.00,0.00
15min,AgWx,bigpiney,439,26APR2019:04:30:00,38.3,12.54,32.3,32.1,32.7,33.3,32.1,81,83,80,0.502,27.7,28.1,27.0,0.219,2.7,93,23,4.5,-0.00010,-0.00012,38.8,34.4,52,0,0,0.0,1.20,0.00,0.00
15min,AgWx,bigpiney,439,26APR2019:04:45:00,37.6,12.52,31.9,31.8,32.1,32.5,31.7,84,85,82,0.514,27.8,28.4,27.2,1.162,2.2,350,40,3.7,-0.00013,-0.00016,38.7,34.5,52,0,0,0.0,1.20,0.00,0.00
15min,AgWx,bigpiney,439,26APR2019:05:00:00,37.0,12.52,32.9,32.2,32.1,32.6,31.7,83,85,82,0.511,27.7,27.9,27.4,1.885,1.0,301,31,2.8,-0.00018,-0.00026,38.5,34.5,52,0,0,0.0,1.20,0.00,0.00
15min,AgWx,bigpiney,439,26APR2019:05:15:00,36.4,12.51,32.6,32.0,32.6,33.3,31.9,81,84,78,0.510,27.4,27.8,26.5,0.833,1.2,185,21,2.9,-0.00017,-0.00023,38.4,34.3,52,0,0,0.0,1.20,0.00,0.00
15min,AgWx,bigpiney,439,26APR2019:05:30:00,35.9,12.5,32.2,32.1,32.4,33.1,32.0,82,84,78,0.507,27.4,28.1,26.4,1.776,1.2,240,78,2.6,-0.00016,-0.00022,38.2,34.4,52,2,0,0.0,1.20,0.00,0.00
15min,AgWx,bigpiney,439,26APR2019:05:45:00,35.6,12.51,32.5,31.6,31.5,32.1,31.2,83,84,82,0.502,26.8,27.4,26.3,3.551,4.4,313,10,5.6,0.00003,0.00011,38.1,34.4,52,9,0,0.0,1.20,0.00,0.00
15min,AgWx,bigpiney,439,26APR2019:06:00:00,35.5,12.51,37.4,36.4,33.4,36.4,31.7,81,84,77,0.558,28.2,29.8,27.2,6.094,5.9,336,12,13.1,0.00020,0.00032,37.9,34.3,52,11,0,0.0,1.20,0.00,0.00
15min,AgWx,bigpiney,439,26APR2019:06:15:00,36.5,12.56,39.9,39.7,39.3,40.1,36.4,76,79,72,0.652,32.5,33.7,29.9,6.555,9.7,356,16,15.4,0.00039,0.00064,37.8,34.3,52,29,0,0.0,1.20,0.00,0.00
15min,AgWx,bigpiney,439,26APR2019:06:30:00,37.9,12.54,39.7,39.5,39.6,39.7,39.5,81,82,79,0.676,34.1,34.5,33.7,6.335,6.5,0.2,14,10.4,0.00034,0.00050,37.6,34.2,52,35,0,0.0,1.20,0.00,0.00
15min,AgWx,bigpiney,439,26APR2019:06:45:00,39.1,12.6,39.2,39.0,39.3,39.5,39.0,84,86,82,0.692,34.9,35.1,34.5,2.872,3.7,36,24,6.8,0.00032,0.00041,37.5,34.2,52,52,1,0.0,1.20,0.00,0.00
15min,AgWx,bigpiney,439,26APR2019:07:00:00,39.8,12.75,39.5,39.2,38.8,39.2,38.4,87,89,86,0.721,35.3,36.2,34.9,3.113,3.4,158,34,4.9,0.00050,0.00058,37.4,34.1,52,143,1,0.0,1.20,0.00,0.00
15min,AgWx,bigpiney,439,26APR2019:07:15:00,40.6,12.9,40.6,40.4,40.0,40.4,39.1,86,89,84,0.720,36.1,36.7,35.7,3.442,2.2,153,28,4.5,0.00073,0.00082,37.2,34.2,52,200,1,0.0,1.20,0.00,0.00
15min,AgWx,bigpiney,439,26APR2019:07:30:00,41.6,13.37,42.1,40.8,40.6,40.9,40.2,83,85,82,0.715,35.9,36.4,35.5,0,1.6,121,33,4.4,0.00130,0.00143,37.1,34.1,52,349,1,0.0,1.20,0.00,0.00
15min,AgWx,bigpiney,439,26APR2019:07:45:00,42.7,13.31,41.7,40.9,40.9,41.2,40.6,83,84,82,0.716,36.1,36.7,35.7,0.022,1.1,51,30,3.0,0.00102,0.00111,37.0,34.1,53,240,1,0.0,1.20,0.00,0.00
15min,AgWx,bigpiney,439,26APR2019:08:00:00,43.6,12.93,41.4,41.3,41.1,41.3,40.9,82,83,81,0.715,36.1,36.6,35.7,0.745,0.9,168,46,3.7,0.00066,0.00073,36.9,34.1,53,124,1,0.0,1.20,0.00,0.00